Visibility
15.0 15.0 15.0 15.0 15.0 15.0 15.0 14.5 15.0 15.0 15.0 15.0 15.0 10.6 15.0 15.0 11.0 10.9 15.0 15.0 4.0 1.8 3.1 4.7 4.0 0.8 10.4 6.4 6.1 3.8 4.9 10.4 12.9 15.0 15.0 15.0 15.0 15.0 15.0 15.0 15.0 15.0 15.0
15.0 15.0 15.0 15.0 15.0 15.0 15.0 15.0 15.0 15.0 7.1 15.0 15.0 15.0 15.0 15.0 15.0 15.0 15.0 9.1 11.3 7.6 0.3 5.2 7.3 2.5 1.0 2.1 5.4 5.7 9.2 15.0 15.0 15.0 15.0 15.0 15.0 15.0 15.0 15.0 15.0 15.0 15.0
15.0 15.0 15.0 15.0 15.0 15.0 15.0 15.0 12.6 8.9 12.5 15.0 15.0 15.0 15.0 15.0 15.0 4.7 4.9 6.2 14.8 6.9 8.2 7.2 6.7 6.1 1.2 1.3 3.8 3.9 5.9 10.4 15.0 15.0 15.0 15.0 15.0 15.0 15.0 15.0 15.0 15.0 15.0
15.0 15.0 15.0 15.0 15.0 15.0 15.0 11.0 0.7 3.3 7.8 8.7 15.0 15.0 15.0 15.0 14.0 8.3 5.9 10.2 15.0 8.5 15.0 11.8 6.4 6.1 5.8 3.8 3.8 5.4 10.5 11.9 15.0 15.0 15.0 15.0 15.0 15.0 15.0 15.0 15.0 15.0 15.0
15.0 15.0 15.0 15.0 15.0 15.0 15.0 15.0 12.3 10.3 14.4 15.0 4.5 10.5 15.0 15.0 14.8 12.2 15.0 11.9 15.0 15.0 15.0 15.0 15.0 13.2 13.8 10.9 6.6 6.9 14.9 12.2 11.4 15.0 15.0 15.0 15.0 15.0 15.0 15.0 15.0 15.0 15.0
15.0 15.0 15.0 15.0 15.0 15.0 15.0 15.0 9.2 14.8 1.3 0.8 0.2 0.3 0.1 2.0 15.0 8.2 14.7 15.0 15.0 15.0 15.0 15.0 15.0 15.0 15.0 15.0 15.0 11.7 14.8 10.9 15.0 15.0 15.0 15.0 15.0 15.0 15.0 15.0 15.0 5.5 0.5
15.0 15.0 15.0 15.0 15.0 15.0 15.0 15.0 0.2 0.1 0.2 0.1 0.2 0.3 0.1 0.1 15.0 15.0 15.0 15.0 15.0 15.0 15.0 15.0 11.1 7.1 7.9 13.6 15.0 15.0 15.0 15.0 15.0 15.0 15.0 15.0 15.0 15.0 15.0 15.0 15.0 15.0 15.0
15.0 15.0 15.0 15.0 15.0 15.0 15.0 15.0 3.2 1.2 0.1 0.1 0.2 1.8 5.3 8.4 15.0 15.0 9.0 9.3 15.0 15.0 15.0 15.0 15.0 15.0 15.0 15.0 15.0 15.0 15.0 15.0 15.0 15.0 15.0 15.0 15.0 15.0 15.0 15.0 15.0 15.0 15.0
15.0 15.0 15.0 15.0 15.0 15.0 15.0 15.0 15.0 12.1 0.7 0.3 14.6 15.0 3.9 15.0 15.0 15.0 14.0 14.0 10.3 15.0 15.0 15.0 15.0 15.0 15.0 15.0 15.0 15.0 15.0 15.0 15.0 15.0 15.0 15.0 15.0 15.0 15.0 15.0 15.0 15.0 15.0
15.0 15.0 15.0 15.0 15.0 15.0 15.0 15.0 15.0 2.9 0.2 0.9 0.1 15.0 15.0 15.0 14.1 11.7 14.3 13.8 5.7 14.0 14.9 15.0 15.0 15.0 15.0 15.0 15.0 15.0 15.0 15.0 15.0 15.0 15.0 15.0 15.0 15.0 15.0 15.0 15.0 15.0 15.0
15.0 15.0 15.0 15.0 15.0 15.0 15.0 15.0 15.0 5.3 0.0 0.0 0.0 0.1 9.8 3.7 0.4 8.1 7.9 0.1 0.1 0.0 0.0 2.2 15.0 15.0 15.0 15.0 15.0 15.0 15.0 15.0 15.0 15.0 15.0 15.0 15.0 15.0 15.0 15.0 15.0 15.0 15.0
15.0 11.4 15.0 12.7 15.0 15.0 15.0 15.0 13.4 0.1 0.1 0.1 0.1 0.1 0.1 0.2 2.1 9.7 14.8 9.7 2.3 0.0 0.0 0.1 13.4 15.0 15.0 15.0 15.0 15.0 15.0 15.0 15.0 15.0 15.0 15.0 15.0 15.0 15.0 15.0 15.0 15.0 15.0
0.9 0.1 0.0 0.7 15.0 15.0 15.0 3.0 0.1 0.3 0.1 0.1 0.2 0.2 0.1 0.0 0.1 0.5 0.4 0.1 0.0 0.0 0.0 1.4 15.0 15.0 15.0 15.0 15.0 15.0 15.0 15.0 15.0 15.0 15.0 15.0 15.0 15.0 15.0 15.0 15.0 15.0 15.0
0.6 0.2 0.1 0.1 15.0 0.4 1.3 0.5 0.1 0.1 0.0 0.0 0.1 0.1 0.0 0.0 0.0 0.0 0.0 0.0 0.0 0.0 0.0 0.0 0.0 1.8 14.1 15.0 15.0 14.5 15.0 15.0 15.0 15.0 15.0 12.5 15.0 15.0 15.0 15.0 15.0 15.0 15.0
12.2 0.2 0.3 15.0 0.3 0.1 0.1 0.0 0.0 0.0 0.0 0.0 0.0 0.1 0.0 0.0 0.0 0.0 0.0 0.0 0.0 0.0 0.1 0.1 0.1 4.7 7.0 5.5 2.0 12.5 12.5 15.0 15.0 15.0 15.0 15.0 15.0 15.0 13.6 15.0 15.0 15.0 15.0
15.0 15.0 15.0 15.0 1.2 0.1 0.0 0.0 0.1 0.0 0.1 0.1 0.1 0.0 0.0 0.1 3.7 3.4 0.0 0.0 0.0 0.2 0.3 0.7 0.6 8.2 15.0 12.1 7.4 7.1 7.6 11.6 13.8 15.0 10.6 15.0 15.0 15.0 14.6 15.0 15.0 15.0 15.0
15.0 14.9 15.0 15.0 0.4 0.0 0.0 0.0 0.0 0.0 14.7 0.2 0.1 0.1 0.1 0.1 0.0 0.1 0.0 0.8 9.7 0.2 2.2 13.7 14.8 14.5 15.0 15.0 15.0 9.1 11.1 12.4 8.3 15.0 15.0 15.0 15.0 15.0 15.0 15.0 15.0 15.0 15.0
0.1 7.2 12.8 15.0 0.2 0.1 0.0 0.0 0.0 0.0 0.0 0.0 0.1 0.1 0.1 0.1 0.0 0.0 0.1 0.2 0.1 0.1 11.7 11.1 13.7 15.0 15.0 15.0 15.0 9.6 6.7 6.2 6.5 14.9 15.0 15.0 15.0 15.0 15.0 15.0 15.0 15.0 15.0
14.7 2.9 11.4 13.2 10.1 0.1 0.0 0.0 0.0 0.0 0.0 0.0 0.0 0.1 0.1 0.5 0.0 0.0 0.0 0.4 0.8 0.6 0.2 0.1 0.4 14.7 15.0 15.0 15.0 15.0 15.0 15.0 15.0 14.9 9.8 14.3 15.0 15.0 9.7 15.0 15.0 15.0 15.0
15.0 6.2 10.6 15.0 0.2 0.0 0.0 0.0 0.0 0.0 0.0 0.0 0.0 0.0 0.0 0.0 0.0 0.0 0.0 0.1 0.1 0.1 0.1 0.1 0.2 0.8 1.7 12.5 14.1 15.0 15.0 15.0 15.0 15.0 15.0 15.0 15.0 15.0 10.7 7.5 10.3 15.0 15.0
0.1 0.1 0.1 0.1 0.0 0.0 0.0 0.0 0.0 0.0 0.0 0.0 0.0 0.0 0.0 0.0 0.0 0.0 0.0 0.2 0.1 0.1 0.1 0.1 0.1 0.1 0.1 0.2 0.3 0.8 13.5 14.7 14.7 15.0 15.0 15.0 15.0 15.0 15.0 15.0 11.4 8.4 14.7
0.1 0.0 0.0 0.0 0.0 0.0 0.0 0.0 0.0 0.0 0.0 0.0 0.0 0.0 0.0 0.0 0.0 0.0 0.0 0.0 0.1 0.1 0.1 0.2 0.2 0.1 0.1 0.1 0.6 2.2 8.2 2.0 4.1 11.5 15.0 15.0 15.0 15.0 15.0 15.0 15.0 15.0 2.5
0.1 0.1 0.3 0.2 0.1 0.0 0.0 0.1 0.1 0.1 0.1 0.1 0.1 0.1 0.0 0.0 0.1 0.1 0.0 0.0 0.0 0.1 0.0 0.0 0.0 0.1 0.1 0.1 6.7 14.4 1.3 1.2 10.0 1.7 6.4 15.0 15.0 15.0 15.0 15.0 15.0 11.7 13.1
2.4 0.0 0.0 0.0 0.1 0.1 0.1 0.1 0.1 0.2 0.4 0.2 0.5 0.1 0.0 0.0 0.0 0.1 0.0 0.0 0.0 0.0 0.0 0.0 0.0 0.0 0.0 0.0 0.0 0.0 0.1 0.2 0.9 15.0 15.0 15.0 15.0 15.0 2.9 0.5 0.3 0.4 0.4
0.2 0.3 0.2 0.2 0.4 0.1 0.3 0.9 1.4 1.5 0.6 0.4 0.6 0.7 0.9 0.7 0.2 0.0 0.0 0.0 0.0 0.0 0.0 0.0 0.0 0.0 0.0 0.0 0.0 0.0 0.0 0.1 0.0 0.0 0.0 0.1 0.3 0.4 0.1 0.1 0.2 0.2 0.1
0.8 0.2 0.3 0.3 0.3 0.4 1.3 0.7 0.2 0.3 0.3 0.7 0.6 0.5 0.7 0.7 0.2 0.1 0.1 0.1 0.1 0.1 0.1 0.1 0.1 0.1 0.1 0.1 0.1 0.1 0.1 0.1 0.0 0.0 0.0 0.0 0.1 0.2 0.1 0.1 0.2 0.2 0.4